TimeCDT,TemperatureF,Dew PointF,Humidity,Sea Level PressureIn,VisibilityMPH,Wind Direction,Wind SpeedMPH,Gust SpeedMPH,PrecipitationIn,Events,Conditions,WindDirDegrees,DateUTC
12:12 AM,64.4,53.6,68,29.85,10.0,SSE,11.5,17.3,N/A,,Clear,150,2013-09-23 05:12:00
12:33 AM,64.4,53.6,68,29.85,10.0,SSE,10.4,16.1,N/A,,Scattered Clouds,150,2013-09-23 05:33:00
12:53 AM,64.4,53.6,68,29.86,10.0,SSE,10.4,16.1,N/A,,Scattered Clouds,150,2013-09-23 05:53:00
1:12 AM,64.4,53.6,68,29.86,10.0,SSE,8.1,16.1,N/A,,Clear,150,2013-09-23 06:12:00
1:33 AM,62.6,53.6,72,29.86,10.0,SSE,8.1,-,N/A,,Clear,150,2013-09-23 06:33:00
1:53 AM,62.6,53.6,72,29.87,10.0,SSE,6.9,-,N/A,,Clear,150,2013-09-23 06:53:00
2:12 AM,62.6,53.6,72,29.87,10.0,SSE,8.1,17.3,N/A,,Clear,150,2013-09-23 07:12:00
2:33 AM,62.6,53.6,72,29.87,10.0,SSE,10.4,16.1,N/A,,Unknown,150,2013-09-23 07:33:00
2:53 AM,62.6,53.6,72,29.87,10.0,SSE,9.2,-,N/A,,Unknown,150,2013-09-23 07:53:00
3:12 AM,60.8,53.6,77,29.87,10.0,SSE,6.9,-,N/A,,Clear,150,2013-09-23 08:12:00
3:33 AM,60.8,53.6,77,29.86,10.0,SE,10.4,-,N/A,,Unknown,140,2013-09-23 08:33:00
3:53 AM,59.0,53.6,82,29.86,10.0,SE,10.4,-,N/A,,Unknown,130,2013-09-23 08:53:00
4:12 AM,59.0,53.6,82,29.86,10.0,SE,9.2,-,N/A,,Scattered Clouds,140,2013-09-23 09:12:00
4:33 AM,57.2,53.6,88,29.86,10.0,SE,8.1,-,N/A,,Unknown,140,2013-09-23 09:33:00
4:53 AM,57.2,53.6,88,29.86,10.0,SSE,8.1,-,N/A,,Unknown,150,2013-09-23 09:53:00
5:12 AM,57.2,53.6,88,29.87,10.0,SSE,6.9,-,N/A,,Scattered Clouds,150,2013-09-23 10:12:00
5:33 AM,57.2,51.8,82,29.87,10.0,SSE,6.9,-,N/A,,Unknown,150,2013-09-23 10:33:00
5:52 AM,57.2,51.8,82,29.87,10.0,SE,8.1,-,N/A,,Scattered Clouds,140,2013-09-23 10:52:00
6:13 AM,55.4,51.8,88,29.88,10.0,SE,6.9,-,N/A,,Clear,140,2013-09-23 11:13:00
6:32 AM,55.4,51.8,88,29.89,10.0,SE,8.1,-,N/A,,Clear,130,2013-09-23 11:32:00
6:53 AM,55.4,51.8,88,29.89,10.0,SE,9.2,-,N/A,,Scattered Clouds,130,2013-09-23 11:53:00
7:13 AM,53.6,51.8,94,29.89,10.0,SE,9.2,-,N/A,,Clear,140,2013-09-23 12:13:00
7:32 AM,55.4,51.8,88,29.89,10.0,SE,11.5,16.1,N/A,,Unknown,140,2013-09-23 12:32:00
7:53 AM,55.4,51.8,88,29.89,10.0,SE,9.2,16.1,N/A,,Unknown,140,2013-09-23 12:53:00
8:12 AM,57.2,51.8,82,29.89,10.0,SE,10.4,16.1,N/A,,Clear,140,2013-09-23 13:12:00
8:33 AM,59.0,51.8,77,29.89,10.0,SE,10.4,19.6,N/A,,Clear,140,2013-09-23 13:33:00
8:53 AM,60.8,53.6,77,29.89,10.0,SSE,11.5,-,N/A,,Clear,150,2013-09-23 13:53:00
9:12 AM,60.8,53.6,77,29.90,10.0,SSE,9.2,-,N/A,,Clear,150,2013-09-23 14:12:00
9:33 AM,62.6,53.6,72,29.90,10.0,SSE,8.1,17.3,N/A,,Clear,150,2013-09-23 14:33:00
9:53 AM,62.6,53.6,72,29.90,10.0,SE,11.5,16.1,N/A,,Clear,140,2013-09-23 14:53:00
10:12 AM,64.4,53.6,68,29.90,10.0,SSE,9.2,16.1,N/A,,Clear,150,2013-09-23 15:12:00
10:33 AM,64.4,53.6,68,29.89,10.0,SE,13.8,18.4,N/A,,Clear,140,2013-09-23 15:33:00
10:53 AM,64.4,53.6,68,29.89,10.0,SSE,15.0,20.7,N/A,,Clear,150,2013-09-23 15:53:00
11:12 AM,66.2,53.6,64,29.88,10.0,SE,13.8,23.0,N/A,,Clear,140,2013-09-23 16:12:00
11:33 AM,68.0,53.6,60,29.88,10.0,SSE,10.4,23.0,N/A,,Clear,160,2013-09-23 16:33:00
11:53 AM,68.0,53.6,60,29.88,10.0,SSE,12.7,20.7,N/A,,Clear,150,2013-09-23 16:53:00
12:12 PM,69.8,53.6,56,29.87,10.0,SSE,12.7,23.0,N/A,,Clear,150,2013-09-23 17:12:00
12:33 PM,69.8,53.6,56,29.87,10.0,SSE,8.1,23.0,N/A,,Clear,150,2013-09-23 17:33:00
12:53 PM,69.8,53.6,56,29.87,10.0,SSE,12.7,23.0,N/A,,Clear,150,2013-09-23 17:53:00
1:12 PM,69.8,53.6,56,29.87,10.0,SE,12.7,21.9,N/A,,Clear,140,2013-09-23 18:12:00
1:33 PM,71.6,51.8,50,29.86,10.0,SE,12.7,23.0,N/A,,Clear,140,2013-09-23 18:33:00
1:53 PM,71.6,51.8,50,29.86,10.0,SSE,12.7,26.5,N/A,,Clear,150,2013-09-23 18:53:00
2:12 PM,73.4,51.8,47,29.85,10.0,SE,9.2,16.1,N/A,,Clear,140,2013-09-23 19:12:00
2:33 PM,73.4,51.8,47,29.85,10.0,SSE,12.7,21.9,N/A,,Clear,150,2013-09-23 19:33:00
2:53 PM,73.4,51.8,47,29.85,10.0,SE,13.8,18.4,N/A,,Clear,140,2013-09-23 19:53:00
3:12 PM,73.4,51.8,47,29.84,10.0,SSE,13.8,21.9,N/A,,Clear,150,2013-09-23 20:12:00
3:33 PM,73.4,51.8,47,29.84,10.0,SSE,11.5,25.3,N/A,,Clear,150,2013-09-23 20:33:00
3:53 PM,73.4,50.0,44,29.84,10.0,SE,16.1,23.0,N/A,,Clear,140,2013-09-23 20:53:00
4:12 PM,75.2,50.0,41,29.84,10.0,SE,13.8,23.0,N/A,,Clear,140,2013-09-23 21:12:00
4:33 PM,73.4,50.0,44,29.84,10.0,SE,13.8,23.0,N/A,,Clear,140,2013-09-23 21:33:00
4:53 PM,75.2,50.0,41,29.83,10.0,SE,15.0,19.6,N/A,,Clear,140,2013-09-23 21:53:00
5:12 PM,73.4,50.0,44,29.84,10.0,SSE,11.5,18.4,N/A,,Clear,150,2013-09-23 22:12:00
5:33 PM,73.4,50.0,44,29.85,10.0,SE,16.1,21.9,N/A,,Clear,140,2013-09-23 22:33:00
5:53 PM,73.4,51.8,47,29.85,10.0,SE,10.4,18.4,N/A,,Clear,140,2013-09-23 22:53:00
6:12 PM,71.6,51.8,50,29.85,10.0,SE,9.2,19.6,N/A,,Clear,140,2013-09-23 23:12:00
6:33 PM,71.6,51.8,50,29.85,10.0,SE,9.2,16.1,N/A,,Clear,130,2013-09-23 23:33:00
6:53 PM,69.8,51.8,53,29.86,10.0,SE,8.1,-,N/A,,Clear,130,2013-09-23 23:53:00
7:12 PM,66.2,51.8,60,29.86,10.0,SE,8.1,-,N/A,,Scattered Clouds,130,2013-09-24 00:12:00
7:33 PM,64.4,51.8,64,29.86,10.0,SE,6.9,-,N/A,,Scattered Clouds,130,2013-09-24 00:33:00
7:53 PM,64.4,51.8,64,29.87,10.0,SE,8.1,-,N/A,,Clear,130,2013-09-24 00:53:00
8:12 PM,64.4,51.8,64,29.88,10.0,SE,10.4,-,N/A,,Clear,130,2013-09-24 01:12:00
8:33 PM,64.4,51.8,64,29.89,10.0,SE,10.4,-,N/A,,Scattered Clouds,130,2013-09-24 01:33:00
8:53 PM,64.4,51.8,64,29.89,10.0,SE,10.4,17.3,N/A,,Clear,130,2013-09-24 01:53:00
9:12 PM,64.4,51.8,64,29.89,10.0,SE,10.4,17.3,N/A,,Clear,130,2013-09-24 02:12:00
9:33 PM,64.4,51.8,64,29.89,10.0,SE,11.5,18.4,N/A,,Clear,130,2013-09-24 02:33:00
9:53 PM,62.6,51.8,68,29.89,10.0,SE,10.4,16.1,N/A,,Scattered Clouds,130,2013-09-24 02:53:00
10:12 PM,62.6,51.8,68,29.90,10.0,SE,11.5,-,N/A,,Clear,140,2013-09-24 03:12:00
10:33 PM,62.6,51.8,68,29.90,10.0,SE,10.4,17.3,N/A,,Clear,140,2013-09-24 03:33:00
10:53 PM,62.6,51.8,68,29.91,10.0,SE,9.2,-,N/A,,Clear,140,2013-09-24 03:53:00
11:12 PM,62.6,51.8,68,29.91,10.0,SE,9.2,-,N/A,,Clear,140,2013-09-24 04:12:00
11:33 PM,60.8,51.8,72,29.91,10.0,SE,10.4,-,N/A,,Scattered Clouds,130,2013-09-24 04:33:00
11:53 PM,59.0,51.8,77,29.91,10.0,SE,9.2,-,N/A,,Clear,130,2013-09-24 04:53:00